sat.trackr.live / text

‹ back to catalog

QIANFAN-217

NORAD 69816 · 2026-153S

PAYLOAD ACTIVE UNKNOWN

§ Identity

Operator
Country
PRC
Launch date
2026-07-04
Launch site
TAISC
Launch vehicle
Mass (kg)
RCS (m²)

External: N2YO · Heavens-Above · Gunter

§ Orbital elements

Epoch: 2026-09-20T04:10:06.924000Z

Period
101.21 min
Inclination
88.9976°
Eccentricity
0.0007301
Mean motion
14.22764286 rev/d
Perigee alt
810.8 km
Apogee alt
821.3 km
Semi-major
7,194.2 km
B*
1.6267e-4
RAAN
351.3322°
Arg perigee
358.9412°
Mean anomaly
1.1763°
Rev number
1,109

§ Raw data

QIANFAN-2171 69816U 26153S   26263.17369125  .00000379  00000+0  16267-3 0  99932 69816  88.9976 351.3322 0007301 358.9412   1.1763 14.22764286 11092

JSON: /api/v1/satellites/69816 · /tle

For live sub-satellite position, see the globe view (requires WebGL).

§ Visibility from observer

Set your observer location to see the next 7 days of passes ≥ 10°. The values pass through the URL so the page stays shareable.

No JS? Fill the form by hand. The geolocation button needs JavaScript.